Content
SEND FEEDBACK

Daily
Averages
Monthly
Summary
United States of America

ROBERT LEE, TEXAS


Home > North America > United States > Texas
Elevation: 2450 feet     Latitude: 31 44N     Longitude: 100 36W

WEATHER
 
SELECT A DAY
Number of Records: 190,434;   Date Range: 1/1/95 - 11/21/14
 
SHARE

PRINT THIS DATA

[ ← Previous Day ]
WEATHER ALMANAC - JANUARY 23, 2013
[ Next Day → ]
[ °C ]   °F
Weather ElementAverageHighLow
Temperature62.2 °F78.1 °F (3:51 pm)53.1 °F (6:51 am)
Dewpoint50 °F55.4 °F (10:10 am)42.1 °F (4:51 pm)
Humidity68.4 %93 % (7:51 am)29 % (4:51 pm)
Barometer30.19 in30.27 in (10:10 am)30.12 in (4:51 pm)
Wind Speed10.1 mph16.1 mph (3:51 am)
Wind Gust19.6 mph (2:51 pm)
Weather ElementAverage
Visibility9.4 mi
Wind DirectionSSW (206.3 °)

Weather ElementTotal
Precipitation---
Cooling Degree Days0.6 (Base 65)
Growing Degree Days15.6 (Base 50)
Averaged from 24 records on January 23, 2013
WEATHER CONDITIONS BREAKOUT
WIND DIRECTION BREAKOUT
WEATHER BY HOUR - JANUARY 23, 2013
[ °C ]   °F
Local TimeTemperatureDewpointHumidityBarometerVisibilityWind DirectionWind SpeedGust SpeedPrecipitationEventsConditions
1:51 AM54.0 °F50.0 °F86 %30.18 in10.0 miSSW (200°)9.2 mphClear
2:51 AM55.9 °F52.0 °F87 %30.17 in10.0 miSSW (200°)10.4 mphClear
3:51 AM55.9 °F52.0 °F87 %30.16 in10.0 miSSW (210°)16.1 mphClear
4:51 AM55.9 °F52.0 °F87 %30.17 in10.0 miSSW (210°)12.7 mphClear
5:51 AM54.0 °F51.1 °F90 %30.19 in10.0 miVariable5.8 mphClear
6:36 AM53.6 °F50.0 °F88 %30.22 in8.0 miSouth (190°)4.6 mphScattered Clouds
6:51 AM53.1 °F50.0 °F89 %30.22 in7.0 miSouth (190°)6.9 mphMostly Cloudy
7:51 AM55.0 °F53.1 °F93 %30.23 in7.0 miSW (230°)8.1 mphOvercast
8:51 AM55.9 °F53.1 °F90 %30.25 in6.0 miSW (220°)9.2 mphOvercast
9:51 AM60.1 °F55.0 °F83 %30.25 in8.0 miWSW (240°)12.7 mphOvercast
10:10 AM62.6 °F55.4 °F77 %30.27 in10.0 miWSW (240°)11.5 mphScattered Clouds
10:51 AM64.9 °F54.0 °F68 %30.25 in10.0 miWSW (240°)12.7 mphClear
11:51 AM69.1 °F54.0 °F58 %30.23 in10.0 miWSW (240°)12.7 mphClear
12:51 PM73.0 °F55.0 °F53 %30.19 in10.0 miWSW (240°)12.7 mphClear
2:51 PM77.0 °F45.0 °F32 %30.14 in10.0 miWSW (250°)10.4 mph19.6 mphClear
3:51 PM78.1 °F44.1 °F30 %30.13 in10.0 miSW (230°)10.4 mphClear
4:51 PM77.0 °F42.1 °F29 %30.12 in10.0 miSW (220°)9.2 mphClear
5:51 PM72.0 °F45.0 °F38 %30.13 in10.0 miSSW (200°)8.1 mphClear
6:51 PM66.9 °F45.0 °F45 %30.14 in10.0 miSouth (190°)9.2 mphClear
7:51 PM63.0 °F46.0 °F54 %30.16 in10.0 miSouth (190°)10.4 mphClear
8:51 PM57.9 °F46.9 °F67 %30.17 in10.0 miSSW (200°)8.1 mphClear
9:51 PM55.0 °F46.9 °F74 %30.18 in10.0 miSSW (210°)6.9 mphClear
10:51 PM62.1 °F50.0 °F65 %30.17 in10.0 miSSW (200°)11.5 mphClear
11:51 PM60.1 °F51.1 °F72 %30.15 in10.0 miSSW (210°)13.8 mphClear
Hourly data recorded from KSJT, located miles away from Robert Lee, Texas







STORIES FROM OUR PARTNERS